Location: Unspecified
(47.6578°N, 23.5640°E)
Time: 04:14:39
(UTC+02:00)

ISS - Pass Details

Date: 05 December 2017
Orbit: 402 x 407 km, 51.6° (Epoch: 10 December)

Event Time Altitude Azimuth Distance (km) Brightness Sun altitude
Rises 19:35:49 0° 287° (WNW) 2,330 1.1 -29.6°
Reaches altitude 10° 19:37:58 10° 295° (WNW) 1,468 -0.3 -29.9°
Enters shadow 19:38:14 12° 296° (WNW) 1,368 -0.5 -30.0°
